Weather History for KDAG - September, 2012

Change the Weather History Date:

Sunday, September 30, 2012

  Actual Average (WUND) Record (WUND)
Temperature  
Mean Temperature 82 °F -  
Max Temperature 99 °F - - (-1)
Min Temperature 66 °F - - (-1)
Cooling Degree Days 18    
Growing Degree Days 32 (Base 50)    
Moisture  
Dew Point 35 °F    
Average Humidity 20    
Maximum Humidity 36    
Minimum Humidity 10    
Precipitation  
Precipitation 0.00 in - - ()
Sea Level Pressure  
Sea Level Pressure 29.96 in    
Wind  
Wind Speed 8 mph (West)    
Max Wind Speed 13 mph    
Max Gust Speed -    
Visibility 10 miles    
Events      
Averages and records for this station are not official NWS values.
T = Trace of Precipitation, MM = Missing Value Source: NWS Daily Summary

Daily Weather History Graph

Daily Weather History Graph

Search for Another Location

Airport or City:

Trip Planner

Search our weather history database for the weather conditions in past years. The results will help you decide how hot, cold, wet, or windy it might be!

Date:

Astronomy

Sep. 30, 2012 Rise Set
Actual Time 6:41 AM PDT 6:31 PM PDT
Civil Twilight 6:16 AM PDT 6:56 PM PDT
Nautical Twilight 5:47 AM PDT 7:26 PM PDT
Astronomical Twilight 5:17 AM PDT 7:55 PM PDT
Moon 6:42 PM PDT (9/30) 7:13 AM PDT (9/30)
Length of Visible Light 12h 40m
Length of Day
11h 50m
Full, 100% of the Moon is Illuminated
Sep 30
Full
Oct 8
Last Quarter
Oct 15
New
Oct 21
First Quarter
Oct 29
Full

Hourly Weather History & Observations

Time (PDT) Temp. Dew Point Humidity Pressure Visibility Wind Dir Wind Speed Gust Speed Precip Events Conditions
12:50 AM 73.0 °F 33.1 °F 23% 29.95 in 10.0 mi West 9.2 mph - N/A   Clear
1:50 AM 73.9 °F 36.0 °F 25% 29.96 in 10.0 mi WSW 10.4 mph - N/A   Clear
2:50 AM 73.0 °F 37.9 °F 28% 29.96 in 10.0 mi WSW 10.4 mph - N/A   Clear
3:50 AM 71.1 °F 37.9 °F 30% 29.96 in 10.0 mi West 12.7 mph - N/A   Clear
4:50 AM 71.1 °F 39.0 °F 31% 29.97 in 10.0 mi West 12.7 mph - N/A   Clear
5:50 AM 68.0 °F 39.0 °F 35% 29.98 in 10.0 mi West 8.1 mph - N/A   Clear
6:50 AM 66.9 °F 39.0 °F 36% 30.00 in 10.0 mi West 11.5 mph - N/A   Clear
7:50 AM 70.0 °F 39.0 °F 32% 30.01 in 10.0 mi West 12.7 mph - N/A   Clear
8:50 AM 77.0 °F 41.0 °F 28% 30.03 in 10.0 mi West 12.7 mph - N/A   Clear
9:50 AM 82.0 °F 41.0 °F 23% 30.03 in 10.0 mi WNW 9.2 mph - N/A   Clear
10:50 AM 87.1 °F 43.0 °F 21% 30.01 in 10.0 mi NW 11.5 mph - N/A   Clear
12:50 PM 96.1 °F 37.0 °F 13% 29.98 in 10.0 mi North 5.8 mph - N/A   Clear
1:50 PM 98.1 °F 35.1 °F 11% 29.95 in 10.0 mi Variable 4.6 mph - N/A   Clear
2:50 PM 98.1 °F 32.0 °F 10% 29.93 in 10.0 mi Calm Calm - N/A   Clear
3:50 PM 98.1 °F 32.0 °F 10% 29.91 in 10.0 mi Calm Calm - N/A   Clear
4:50 PM 99.0 °F 32.0 °F 10% 29.90 in 10.0 mi Variable 3.5 mph - N/A   Clear
5:50 PM 97.0 °F 30.9 °F 10% 29.90 in 10.0 mi ENE 4.6 mph - N/A   Clear
6:50 PM 90.0 °F 32.0 °F 13% 29.91 in 10.0 mi Calm Calm - N/A   Clear
7:50 PM 88.0 °F 28.9 °F 12% 29.92 in 10.0 mi Calm Calm - N/A   Clear
8:50 PM 84.9 °F 28.9 °F 13% 29.93 in 10.0 mi Calm Calm - N/A   Clear
9:50 PM 78.1 °F 28.9 °F 17% 29.94 in 10.0 mi West 8.1 mph - N/A   Clear
10:50 PM 78.1 °F 28.9 °F 17% 29.93 in 10.0 mi West 3.5 mph - N/A   Clear
11:50 PM 73.9 °F 28.9 °F 19% 29.93 in 10.0 mi West 5.8 mph - N/A   Clear